This is the latest recevied weather packets stored in our database for station/object KD5FHA. If no packets are shown the sender has not sent any weather packets the latest 10 day(s).
| Time | Temp. | Humidity | Pressure | Rain* | Wind** | Luminosity | Snow |
|---|---|---|---|---|---|---|---|
| 1778190152 | 21.11° C | 55% | 1016.6 hPa | 0 mm | - | 201 W/m² | - |
| 1778189847 | 21.11° C | 55% | 1016.5 hPa | 0 mm | - | 230 W/m² | - |
| 1778189545 | 21.11° C | 56% | 1016.6 hPa | 0 mm | - | 213 W/m² | - |
| 1778189241 | 21.11° C | 56% | 1016.6 hPa | 0 mm | - | 192 W/m² | - |
| 1778188938 | 21.11° C | 54% | 1016.7 hPa | 0 mm | - | 184 W/m² | - |
| 1778188634 | 21.67° C | 55% | 1017 hPa | 0 mm | - | 183 W/m² | - |
| 1778188330 | 21.67° C | 53% | 1017 hPa | 0 mm | - | 201 W/m² | - |
| 1778188028 | 21.67° C | 53% | 1017.2 hPa | 0 mm | - | 211 W/m² | - |
| 1778187724 | 22.22° C | 52% | 1017.2 hPa | 0 mm | - | 211 W/m² | - |
| 1778187421 | 22.22° C | 48% | 1017.3 hPa | 0 mm | - | 206 W/m² | - |
| 1778187118 | 22.22° C | 50% | 1017.3 hPa | 0 mm | - | 216 W/m² | - |
| 1778186814 | 22.78° C | 48% | 1017.2 hPa | 0 mm | - | 258 W/m² | - |
| 1778186512 | 22.22° C | 50% | 1017.1 hPa | 0 mm | - | 264 W/m² | - |
| 1778186210 | 22.22° C | 47% | 1017.1 hPa | 0 mm | - | 248 W/m² | - |
| 1778185907 | 22.22° C | 49% | 1017.1 hPa | 0 mm | - | 249 W/m² | - |
| 1778185602 | 22.22° C | 48% | 1017 hPa | 0 mm | - | 279 W/m² | - |
| 1778185298 | 22.78° C | 49% | 1016.9 hPa | 0 mm | - | 310 W/m² | - |
| 1778184993 | 22.22° C | 48% | 1016.7 hPa | 0 mm | - | 342 W/m² | - |
| 1778184691 | 22.22° C | 50% | 1016.8 hPa | 0 mm | - | 334 W/m² | - |
| 1778184386 | 22.22° C | 49% | 1017 hPa | 0 mm | - | 358 W/m² | - |
| 1778184083 | 22.22° C | 49% | 1017.2 hPa | 0 mm | - | 357 W/m² | - |
| 1778183780 | 22.22° C | 51% | 1017.2 hPa | 0 mm | - | 344 W/m² | - |
| 1778183477 | 22.78° C | 49% | 1017.3 hPa | 0 mm | - | 317 W/m² | - |
| 1778183174 | 22.78° C | 49% | 1017.3 hPa | 0 mm | - | 344 W/m² | - |
| 1778182869 | 22.22° C | 50% | 1017.3 hPa | 0 mm | - | 355 W/m² | - |
* Rain latest hour (hover to see other rain measurements)
** Current wind speed in m/s (hover to see current wind gust speed)